Weather History for KXVG - May, 2013

Change the Weather History Date:

Thursday, May 16, 2013

  Actual Average (KPWC) Record (KPWC)
Temperature  
Mean Temperature 59 °F -  
Max Temperature 77 °F 62 °F 78 °F (2008)
Min Temperature 41 °F 40 °F 28 °F (2014)
Degree Days  
Heating Degree Days 6    
Growing Degree Days 9 (Base 50)    
Moisture  
Dew Point 36 °F    
Average Humidity 45    
Maximum Humidity 93    
Minimum Humidity 19    
Precipitation  
Precipitation 0.00 in - - ()
Sea Level Pressure  
Sea Level Pressure 29.94 in    
Wind  
Wind Speed 1 mph (ENE)    
Max Wind Speed 8 mph    
Max Gust Speed -    
Visibility 10 miles    
Events      
Averages and records for this station are not official NWS values.
T = Trace of Precipitation, MM = Missing Value Source: NWS Daily Summary

Daily Weather History Graph

Daily Weather History Graph

Search for Another Location

Airport or City:

Trip Planner

Search our weather history database for the weather conditions in past years. The results will help you decide how hot, cold, wet, or windy it might be!

Date:

Astronomy

May. 16, 2013 Rise Set
Actual Time 5:39 AM CDT 8:47 PM CDT
Civil Twilight 5:03 AM CDT 9:23 PM CDT
Nautical Twilight 4:16 AM CDT 10:10 PM CDT
Astronomical Twilight 3:19 AM CDT 11:08 PM CDT
Moon 11:21 AM CDT (5/16) 1:02 AM CDT (5/16)
Length of Visible Light 16h 19m
Length of Day
15h 07m
Waxing Crescent, 36% of the Moon is Illuminated
May 16
Waxing Crescent
May 17
First Quarter
May 24
Full
May 31
Last Quarter
Jun 8
New

Hourly Weather History & Observations

Time (CDT) Temp. Windchill Dew Point Humidity Pressure Visibility Wind Dir Wind Speed Gust Speed Precip Events Conditions
12:16 AM 48.2 °F - 42.8 °F 82% 29.86 in 10.0 mi Calm Calm - N/A   Clear
12:36 AM 51.8 °F - 42.8 °F 71% 29.87 in 10.0 mi North 3.5 mph - N/A   Clear
12:56 AM 50.0 °F - 42.8 °F 76% 29.88 in 10.0 mi Calm Calm - N/A   Clear
1:16 AM 48.2 °F - 42.8 °F 82% 29.88 in 10.0 mi Calm Calm - N/A   Clear
1:36 AM 46.4 °F 45.2 °F 42.8 °F 87% 29.88 in 10.0 mi North 3.5 mph - N/A   Clear
1:56 AM 46.4 °F 45.2 °F 42.8 °F 87% 29.89 in 10.0 mi North 3.5 mph - N/A   Clear
2:16 AM 46.4 °F - 42.8 °F 87% 29.89 in 10.0 mi Calm Calm - N/A   Clear
2:36 AM 46.4 °F - 41.0 °F 81% 29.90 in 10.0 mi Calm Calm - N/A   Clear
2:56 AM 44.6 °F - 41.0 °F 87% 29.90 in 10.0 mi Calm Calm - N/A   Clear
3:16 AM 44.6 °F - 41.0 °F 87% 29.90 in 10.0 mi Calm Calm - N/A   Clear
3:36 AM 42.8 °F - 41.0 °F 93% 29.91 in 10.0 mi Calm Calm - N/A   Clear
3:56 AM 44.6 °F - 41.0 °F 87% 29.92 in 10.0 mi Calm Calm - N/A   Clear
4:16 AM 44.6 °F - 42.8 °F 93% 29.92 in 10.0 mi Calm Calm - N/A   Scattered Clouds
4:36 AM 44.6 °F 43.1 °F 42.8 °F 93% 29.92 in 10.0 mi North 3.5 mph - N/A   Scattered Clouds
4:56 AM 44.6 °F - 41.0 °F 87% 29.92 in 10.0 mi Calm Calm - N/A   Clear
5:16 AM 42.8 °F - 39.2 °F 87% 29.93 in 10.0 mi Calm Calm - N/A   Clear
5:36 AM 42.8 °F - 39.2 °F 87% 29.94 in 10.0 mi Calm Calm - N/A   Clear
5:56 AM 41.0 °F - 39.2 °F 93% 29.94 in 10.0 mi Calm Calm - N/A   Clear
6:16 AM 41.0 °F - 37.4 °F 87% 29.95 in 10.0 mi Calm Calm - N/A   Clear
6:36 AM 41.0 °F - 39.2 °F 93% 29.95 in 10.0 mi Calm Calm - N/A   Clear
6:56 AM 42.8 °F - 39.2 °F 87% 29.95 in 10.0 mi Calm Calm - N/A   Clear
7:16 AM 48.2 °F - 41.0 °F 76% 29.95 in 10.0 mi Calm Calm - N/A   Clear
7:36 AM 53.6 °F - 39.2 °F 58% 29.95 in 10.0 mi Calm Calm - N/A   Clear
7:56 AM 57.2 °F - 35.6 °F 44% 29.95 in 10.0 mi Calm Calm - N/A   Clear
8:16 AM 59.0 °F - 35.6 °F 42% 29.95 in 10.0 mi East 4.6 mph - N/A   Clear
8:36 AM 59.0 °F - 35.6 °F 42% 29.96 in 10.0 mi Calm Calm - N/A   Clear
8:56 AM 62.6 °F - 33.8 °F 34% 29.96 in 10.0 mi Calm Calm - N/A   Clear
9:16 AM 64.4 °F - 32.0 °F 30% 29.97 in 10.0 mi ESE 4.6 mph - N/A   Clear
9:36 AM 64.4 °F - 32.0 °F 30% 29.97 in 10.0 mi ESE 3.5 mph - N/A   Clear
9:56 AM 66.2 °F - 33.8 °F 30% 29.97 in 10.0 mi Calm Calm - N/A   Clear
10:16 AM 66.2 °F - 33.8 °F 30% 29.97 in 10.0 mi NNE 3.5 mph - N/A   Clear
10:36 AM 68.0 °F - 33.8 °F 28% 29.96 in 10.0 mi East 4.6 mph - N/A   Clear
10:56 AM 69.8 °F - 33.8 °F 27% 29.97 in 10.0 mi East 3.5 mph - N/A   Clear
11:16 AM 69.8 °F - 32.0 °F 25% 29.97 in 10.0 mi ESE 3.5 mph - N/A   Clear
11:36 AM 71.6 °F - 30.2 °F 22% 29.96 in 10.0 mi SE 5.8 mph - N/A   Clear
11:56 AM 71.6 °F - 32.0 °F 23% 29.96 in 10.0 mi SE 8.1 mph - N/A   Clear
12:16 PM 73.4 °F - 30.2 °F 20% 29.95 in 10.0 mi ENE 3.5 mph - N/A   Clear
12:36 PM 73.4 °F - 32.0 °F 22% 29.95 in 10.0 mi Calm Calm - N/A   Clear
12:56 PM 73.4 °F - 32.0 °F 22% 29.95 in 10.0 mi ENE 4.6 mph - N/A   Clear
1:16 PM 75.2 °F - 33.8 °F 22% 29.94 in 10.0 mi Calm Calm - N/A   Clear
1:36 PM 75.2 °F - 32.0 °F 21% 29.94 in 10.0 mi NE 4.6 mph - N/A   Clear
1:56 PM 75.2 °F - 30.2 °F 19% 29.94 in 10.0 mi NE 3.5 mph - N/A   Clear
2:16 PM 75.2 °F - 32.0 °F 21% 29.94 in 10.0 mi SW 3.5 mph - N/A   Clear
2:36 PM 75.2 °F - 30.2 °F 19% 29.94 in 10.0 mi Calm Calm - N/A   Clear
2:56 PM 75.2 °F - 33.8 °F 22% 29.94 in 10.0 mi SW 5.8 mph - N/A   Clear
3:16 PM 77.0 °F - 32.0 °F 19% 29.94 in 10.0 mi Calm Calm - N/A   Clear
3:36 PM 75.2 °F - 32.0 °F 21% 29.94 in 10.0 mi Calm Calm - N/A   Scattered Clouds
3:56 PM 75.2 °F - 30.2 °F 19% 29.94 in 10.0 mi Calm Calm - N/A   Scattered Clouds
4:16 PM 75.2 °F - 33.8 °F 22% 29.93 in 10.0 mi SSW 3.5 mph - N/A   Scattered Clouds
4:36 PM 75.2 °F - 30.2 °F 19% 29.94 in 10.0 mi Calm Calm - N/A   Scattered Clouds
4:56 PM 75.2 °F - 30.2 °F 19% 29.94 in 10.0 mi ENE 4.6 mph - N/A   Scattered Clouds
5:16 PM 75.2 °F - 30.2 °F 19% 29.94 in 10.0 mi Calm Calm - N/A   Scattered Clouds
5:36 PM 73.4 °F - 30.2 °F 20% 29.94 in 10.0 mi Calm Calm - N/A   Scattered Clouds
5:56 PM 75.2 °F - 30.2 °F 19% 29.94 in 10.0 mi Calm Calm - N/A   Clear
6:16 PM 73.4 °F - 32.0 °F 22% 29.94 in 10.0 mi Calm Calm - N/A   Clear
6:36 PM 73.4 °F - 32.0 °F 22% 29.95 in 10.0 mi Calm Calm - N/A   Scattered Clouds
6:56 PM 71.6 °F - 33.8 °F 25% 29.95 in 10.0 mi Calm Calm - N/A   Scattered Clouds
7:16 PM 71.6 °F - 33.8 °F 25% 29.95 in 10.0 mi NNE 5.8 mph - N/A   Scattered Clouds
7:36 PM 71.6 °F - 32.0 °F 23% 29.95 in 10.0 mi ENE 4.6 mph - N/A   Clear
7:56 PM 69.8 °F - 33.8 °F 27% 29.94 in 10.0 mi ENE 3.5 mph - N/A   Clear
8:16 PM 68.0 °F - 35.6 °F 30% 29.94 in 10.0 mi Calm Calm - N/A   Clear
8:36 PM 68.0 °F - 33.8 °F 28% 29.94 in 10.0 mi NNE 4.6 mph - N/A   Clear
8:56 PM 66.2 °F - 37.4 °F 35% 29.94 in 10.0 mi Calm Calm - N/A   Scattered Clouds
9:16 PM 62.6 °F - 41.0 °F 45% 29.94 in 10.0 mi Calm Calm - N/A   Scattered Clouds
9:36 PM 62.6 °F - 39.2 °F 42% 29.94 in 10.0 mi ENE 3.5 mph - N/A   Clear
9:56 PM 64.4 °F - 35.6 °F 34% 29.94 in 10.0 mi Calm Calm - N/A   Clear
10:16 PM 64.4 °F - 35.6 °F 34% 29.94 in 10.0 mi East 3.5 mph - N/A   Clear
10:36 PM 64.4 °F - 35.6 °F 34% 29.95 in 10.0 mi Calm Calm - N/A   Clear
10:56 PM 62.6 °F - 35.6 °F 37% 29.94 in 10.0 mi East 5.8 mph - N/A   Scattered Clouds
11:16 PM 62.6 °F - 32.0 °F 32% 29.95 in 10.0 mi East 4.6 mph - N/A   Light Drizzle
11:36 PM 62.6 °F - 30.2 °F 30% 29.96 in 10.0 mi East 3.5 mph - N/A   Clear
11:56 PM 62.6 °F - 30.2 °F 30% 29.96 in 10.0 mi East 3.5 mph - N/A   Clear